• In Netherlands
  • List of Countries
  • For 7 days
  • Water Temperature
  • Satellite Maps
  • Weather Map
  • Weather Widgets
  • user-avatar
    Login

    Hourly Weather Wurzburg

    Today, 17 August, Friday

    Time Temperature Precipitation Wind Pressure Humidity
    00:00 +22°C° 0 mm 1 mps 743 mmHg 69%
    01:00 +21°C° 0 mm 1 mps 743 mmHg 72%
    02:00 +21°C° 0 mm 1 mps 743 mmHg 74%
    03:00 +20°C° 0 mm 1 mps 743 mmHg 76%
    04:00 +20°C° 0 mm 1 mps 743 mmHg 78%
    05:00 +21°C° 0.1 mm 1 mps 743 mmHg 77%
    06:00 +21°C° 0.1 mm 1 mps 743 mmHg 76%
    07:00 +22°C° 0.1 mm 1 mps 743 mmHg 75%
    08:00 +24°C° 0 mm 1 mps 744 mmHg 68%
    09:00 +26°C° 0 mm 1 mps 744 mmHg 60%
    10:00 +28°C° 0 mm 2 mps 744 mmHg 53%
    11:00 +29°C° 0.2 mm 1 mps 744 mmHg 50%
    12:00 +30°C° 0.2 mm 1 mps 744 mmHg 46%
    13:00 +31°C° 0.2 mm 1 mps 744 mmHg 43%
    14:00 +31°C° 0 mm 1 mps 744 mmHg 43%
    15:00 +31°C° 0 mm 1 mps 744 mmHg 43%
    16:00 +31°C° 0 mm 1 mps 744 mmHg 44%
    17:00 +29°C° 0.1 mm 2 mps 744 mmHg 50%
    18:00 +28°C° 0.1 mm 2 mps 744 mmHg 56%
    19:00 +26°C° 0.1 mm 2 mps 744 mmHg 62%
    20:00 +25°C° 1.2 mm 2 mps 745 mmHg 71%
    21:00 +22°C° 1.2 mm 3 mps 745 mmHg 80%
    22:00 +20°C° 1.2 mm 3 mps 746 mmHg 89%
    23:00 +20°C° 0.8 mm 3 mps 746 mmHg 91%

    Tomorrow, 18 August, Saturday

    Time Temperature Precipitation Wind Pressure Humidity
    00:00 +19°C° 0.8 mm 2 mps 746 mmHg 93%
    01:00 +19°C° 0.8 mm 2 mps 747 mmHg 95%
    02:00 +18°C° 0 mm 2 mps 747 mmHg 95%
    03:00 +18°C° 0 mm 2 mps 747 mmHg 95%
    04:00 +18°C° 0 mm 2 mps 747 mmHg 95%
    05:00 +18°C° 0 mm 2 mps 747 mmHg 94%
    06:00 +18°C° 0 mm 2 mps 748 mmHg 93%
    07:00 +18°C° 0 mm 2 mps 748 mmHg 92%
    08:00 +19°C° 0 mm 2 mps 748 mmHg 88%
    09:00 +20°C° 0 mm 2 mps 749 mmHg 85%
    10:00 +21°C° 0 mm 2 mps 749 mmHg 81%
    11:00 +21°C° 0 mm 2 mps 749 mmHg 78%
    12:00 +23°C° 0 mm 2 mps 749 mmHg 75%
    13:00 +24°C° 0 mm 2 mps 748 mmHg 71%
    14:00 +24°C° 0 mm 2 mps 748 mmHg 68%
    15:00 +25°C° 0 mm 2 mps 748 mmHg 65%
    16:00 +26°C° 0 mm 2 mps 748 mmHg 61%
    17:00 +25°C° 0 mm 1 mps 748 mmHg 65%
    18:00 +24°C° 0 mm 1 mps 748 mmHg 69%
    19:00 +23°C° 0 mm 1 mps 748 mmHg 72%
    20:00 +22°C° 0 mm 1 mps 748 mmHg 76%
    21:00 +21°C° 0 mm 1 mps 749 mmHg 81%
    22:00 +18°C° 0 mm 0 mps 749 mmHg 85%
    23:00 +17°C° 0 mm 0 mps 749 mmHg 86%

    Day after tomorrow, 19 August, Sunday

    Time Temperature Precipitation Wind Pressure Humidity
    00:00 +17°C° 0 mm 0 mps 749 mmHg 88%
    01:00 +18°C° 0 mm 1 mps 749 mmHg 89%
    02:00 +16°C° 0 mm 0 mps 749 mmHg 89%
    03:00 +16°C° 0 mm 0 mps 749 mmHg 90%
    04:00 +15°C° 0 mm 0 mps 749 mmHg 90%
    05:00 +16°C° 0 mm 0 mps 749 mmHg 88%
    06:00 +17°C° 0 mm 0 mps 749 mmHg 85%
    07:00 +18°C° 0 mm 0 mps 749 mmHg 82%
    08:00 +20°C° 0 mm 0 mps 750 mmHg 73%
    09:00 +22°C° 0 mm 0 mps 750 mmHg 64%
    10:00 +26°C° 0 mm 1 mps 750 mmHg 55%
    11:00 +27°C° 0 mm 1 mps 749 mmHg 50%
    12:00 +28°C° 0 mm 1 mps 749 mmHg 45%
    13:00 +29°C° 0 mm 1 mps 749 mmHg 40%
    14:00 +29°C° 0 mm 1 mps 748 mmHg 39%
    15:00 +29°C° 0 mm 2 mps 748 mmHg 38%
    16:00 +29°C° 0 mm 2 mps 748 mmHg 37%
    17:00 +28°C° 0 mm 2 mps 748 mmHg 43%
    18:00 +26°C° 0 mm 1 mps 748 mmHg 48%
    19:00 +24°C° 0 mm 1 mps 748 mmHg 54%
    20:00 +23°C° 0 mm 1 mps 748 mmHg 56%
    21:00 +22°C° 0 mm 1 mps 748 mmHg 59%
    22:00 +21°C° 0 mm 1 mps 748 mmHg 61%
    23:00 +20°C° 0 mm 1 mps 748 mmHg 64%

    20 August, Monday

    Time Temperature Precipitation Wind Pressure Humidity
    00:00 +18°C° 0 mm 0 mps 748 mmHg 66%
    01:00 +17°C° 0 mm 0 mps 748 mmHg 68%
    02:00 +17°C° 0 mm 0 mps 747 mmHg 70%
    03:00 +17°C° 0 mm 0 mps 747 mmHg 72%
    04:00 +16°C° 0 mm 0 mps 747 mmHg 73%
    05:00 +17°C° 0 mm 0 mps 747 mmHg 72%
    06:00 +18°C° 0 mm 0 mps 748 mmHg 70%
    07:00 +19°C° 0 mm 0 mps 748 mmHg 68%
    08:00 +23°C° 0 mm 1 mps 748 mmHg 60%
    09:00 +25°C° 0 mm 1 mps 748 mmHg 53%
    10:00 +27°C° 0 mm 1 mps 748 mmHg 46%
    11:00 +28°C° 0 mm 2 mps 748 mmHg 43%
    12:00 +29°C° 0 mm 2 mps 747 mmHg 41%
    13:00 +30°C° 0 mm 2 mps 747 mmHg 38%
    14:00 +30°C° 0 mm 2 mps 747 mmHg 38%
    15:00 +30°C° 0 mm 2 mps 747 mmHg 38%
    16:00 +31°C° 0 mm 2 mps 746 mmHg 38%
    17:00 +29°C° 0 mm 2 mps 746 mmHg 45%
    18:00 +27°C° 0 mm 1 mps 747 mmHg 51%
    19:00 +26°C° 0 mm 1 mps 747 mmHg 57%
    20:00 +25°C° 0 mm 1 mps 747 mmHg 61%
    21:00 +23°C° 0 mm 1 mps 747 mmHg 66%
    22:00 +22°C° 0 mm 1 mps 747 mmHg 70%
    23:00 +21°C° 0 mm 1 mps 748 mmHg 75%

    21 August, Tuesday

    Time Temperature Precipitation Wind Pressure Humidity
    00:00 +21°C° 0 mm 1 mps 748 mmHg 79%
    01:00 +20°C° 0 mm 1 mps 748 mmHg 84%
    02:00 +20°C° 0 mm 1 mps 748 mmHg 86%
    03:00 +19°C° 0 mm 1 mps 748 mmHg 88%
    04:00 +19°C° 0 mm 1 mps 747 mmHg 90%
    05:00 +19°C° 0 mm 1 mps 748 mmHg 87%
    06:00 +20°C° 0 mm 1 mps 748 mmHg 84%
    07:00 +21°C° 0 mm 1 mps 748 mmHg 81%
    08:00 +23°C° 0 mm 1 mps 748 mmHg 74%
    09:00 +25°C° 0 mm 1 mps 748 mmHg 66%
    10:00 +27°C° 0 mm 1 mps 748 mmHg 59%
    11:00 +28°C° 0 mm 1 mps 748 mmHg 55%
    12:00 +29°C° 0 mm 1 mps 748 mmHg 51%
    13:00 +30°C° 0 mm 1 mps 748 mmHg 47%
    14:00 +30°C° 0 mm 1 mps 747 mmHg 47%
    15:00 +30°C° 0 mm 1 mps 747 mmHg 46%
    16:00 +30°C° 0 mm 1 mps 747 mmHg 45%
    17:00 +29°C° 0 mm 1 mps 746 mmHg 51%
    18:00 +27°C° 0 mm 1 mps 746 mmHg 56%
    19:00 +26°C° 0 mm 1 mps 746 mmHg 62%
    20:00 +25°C° 0 mm 1 mps 746 mmHg 66%
    21:00 +23°C° 0 mm 1 mps 747 mmHg 71%
    22:00 +22°C° 0 mm 1 mps 747 mmHg 75%
    23:00 +22°C° 0 mm 1 mps 747 mmHg 78%

    22 August, Wednesday

    Time Temperature Precipitation Wind Pressure Humidity
    00:00 +21°C° 0 mm 1 mps 747 mmHg 81%
    01:00 +20°C° 0 mm 1 mps 747 mmHg 83%
    02:00 +20°C° 0 mm 1 mps 746 mmHg 85%
    03:00 +18°C° 0 mm 0 mps 746 mmHg 86%
    04:00 +17°C° 0 mm 0 mps 746 mmHg 88%
    05:00 +18°C° 0 mm 0 mps 746 mmHg 85%
    06:00 +19°C° 0 mm 0 mps 746 mmHg 82%
    07:00 +20°C° 0 mm 0 mps 746 mmHg 79%
    08:00 +22°C° 0 mm 0 mps 746 mmHg 71%
    09:00 +25°C° 0 mm 0 mps 746 mmHg 62%
    10:00 +29°C° 0 mm 1 mps 746 mmHg 54%
    11:00 +30°C° 0 mm 1 mps 746 mmHg 50%
    12:00 +31°C° 0 mm 1 mps 746 mmHg 46%
    13:00 +31°C° 0 mm 2 mps 745 mmHg 42%
    14:00 +32°C° 0 mm 2 mps 745 mmHg 41%
    15:00 +32°C° 0 mm 2 mps 745 mmHg 40%
    16:00 +32°C° 0 mm 1 mps 745 mmHg 38%
    17:00 +30°C° 0 mm 1 mps 745 mmHg 44%
    18:00 +29°C° 0 mm 1 mps 745 mmHg 49%
    19:00 +27°C° 0 mm 1 mps 745 mmHg 55%
    20:00 +26°C° 0 mm 1 mps 745 mmHg 57%
    21:00 +25°C° 0 mm 1 mps 745 mmHg 59%
    22:00 +22°C° 0 mm 0 mps 745 mmHg 61%
    23:00 +21°C° 0 mm 0 mps 745 mmHg 64%
    Show more